STARLINK-4210 (52874 NORAD) Tracking and Keplerian Element Data

This shows tracking and keplerian element data for the satellite.

Feedback or suggestion? Click here.




ElementValue
Catalog52874
NameSTARLINK-4210
Epoch Orbit130
Epoch Day270.00001157
Epoch Year2022
RAAN269.0837
Inclination53.2136
Eccentricity0.0002056
Argument of Perigee51.7965
Mean Anonmoly237.7867
Mean Motion15.08794298
Decay Rate0.0014216
L11 52874U 22062AW 22270.00001157 .00142160 00000+0 87836-2 0 9992
L22 52874 53.2136 269.0837 0002056 51.7965 237.7867 15.08794298 1306

Live tracking and technical data element details for STARLINK-4210 (NORAD 52874). STARLINK-4210 can be tracked NOW for your location showing map with azimuth and elevation plus other details from your city location.

Track the satellite on the map from your city or location and see movement details for azimuth, elevation, latitude, longitude, range, height, and movement on the map or in text.







IsCatalogInMostPopularTable: catalog: 52874, numindb: 4
Update: records affected: 1



GetName: 52874 STARLINK-4210

Hit Count: updated at: Thu, 06 Oct 2022 03:16:44 GMT